Year,Month,Day,Hour,Minute,Value (Times are PST for temperature in C)
2019,05,23,00,00,14.00
2019,05,23,00,01,14.00
2019,05,23,00,02,13.90
2019,05,23,00,03,13.90
2019,05,23,00,04,13.90
2019,05,23,00,05,13.90
2019,05,23,00,06,13.90
2019,05,23,00,07,13.90
2019,05,23,00,08,13.80
2019,05,23,00,09,13.80
2019,05,23,00,10,13.80
2019,05,23,00,11,13.80
2019,05,23,00,12,13.80
2019,05,23,00,13,13.80
2019,05,23,00,14,13.80
2019,05,23,00,15,13.80
2019,05,23,00,16,13.80
2019,05,23,00,17,13.80
2019,05,23,00,18,13.80
2019,05,23,00,19,13.90
2019,05,23,00,20,13.90
2019,05,23,00,21,14.00
2019,05,23,00,22,14.00
2019,05,23,00,23,14.00
2019,05,23,00,24,14.10
2019,05,23,00,25,14.10
2019,05,23,00,26,14.10
2019,05,23,00,27,14.10
2019,05,23,00,28,14.10
2019,05,23,00,29,14.10
2019,05,23,00,30,14.10
2019,05,23,00,31,14.10
2019,05,23,00,32,14.10
2019,05,23,00,33,14.10
2019,05,23,00,34,14.10
2019,05,23,00,35,14.10
2019,05,23,00,36,14.10
2019,05,23,00,37,14.10
2019,05,23,00,38,14.10
2019,05,23,00,39,14.20
2019,05,23,00,40,14.20
2019,05,23,00,41,14.20
2019,05,23,00,42,14.20
2019,05,23,00,43,14.20
2019,05,23,00,44,14.20
2019,05,23,00,45,14.20
2019,05,23,00,46,14.20
2019,05,23,00,47,14.20
2019,05,23,00,48,14.20
2019,05,23,00,49,14.20
2019,05,23,00,50,14.20
2019,05,23,00,51,14.20
2019,05,23,00,52,14.10
2019,05,23,00,53,14.10
2019,05,23,00,54,14.10
2019,05,23,00,55,14.00
2019,05,23,00,56,14.00
2019,05,23,00,57,13.90
2019,05,23,00,58,13.90
2019,05,23,00,59,13.80
2019,05,23,01,00,13.80
2019,05,23,01,01,13.70
2019,05,23,01,02,13.70
2019,05,23,01,03,13.70
2019,05,23,01,04,13.70
2019,05,23,01,05,13.70
2019,05,23,01,06,13.60
2019,05,23,01,07,13.60
2019,05,23,01,08,13.60
2019,05,23,01,09,13.60
2019,05,23,01,10,13.50
2019,05,23,01,11,13.50
2019,05,23,01,12,13.50
2019,05,23,01,13,13.50
2019,05,23,01,14,13.40
2019,05,23,01,15,13.40
2019,05,23,01,16,13.40
2019,05,23,01,17,13.40
2019,05,23,01,18,13.40
2019,05,23,01,19,13.40
2019,05,23,01,20,13.30
2019,05,23,01,21,13.30
2019,05,23,01,22,13.30
2019,05,23,01,23,13.30
2019,05,23,01,24,13.30
2019,05,23,01,25,13.30
2019,05,23,01,26,13.30
2019,05,23,01,27,13.30
2019,05,23,01,28,13.30
2019,05,23,01,29,13.30
2019,05,23,01,30,13.30
2019,05,23,01,31,13.30
2019,05,23,01,32,13.30
2019,05,23,01,33,13.30
2019,05,23,01,34,13.30
2019,05,23,01,35,13.30
2019,05,23,01,36,13.30
2019,05,23,01,37,13.30
2019,05,23,01,38,13.30
2019,05,23,01,39,13.30
2019,05,23,01,40,13.30
2019,05,23,01,41,13.30
2019,05,23,01,42,13.30
2019,05,23,01,43,13.30
2019,05,23,01,44,13.30
2019,05,23,01,45,13.30
2019,05,23,01,46,13.30
2019,05,23,01,47,13.20
2019,05,23,01,48,13.20
2019,05,23,01,49,13.20
2019,05,23,01,50,13.20
2019,05,23,01,51,13.20
2019,05,23,01,52,13.20
2019,05,23,01,53,13.10
2019,05,23,01,54,13.10
2019,05,23,01,55,13.10
2019,05,23,01,56,13.10
2019,05,23,01,57,13.10
2019,05,23,01,58,13.10
2019,05,23,01,59,13.10
2019,05,23,02,00,13.10
2019,05,23,02,01,13.10
2019,05,23,02,02,13.10
2019,05,23,02,03,13.10
2019,05,23,02,04,13.10
2019,05,23,02,05,13.10
2019,05,23,02,06,13.10
2019,05,23,02,07,13.10
2019,05,23,02,08,13.10
2019,05,23,02,09,13.10
2019,05,23,02,10,13.10
2019,05,23,02,11,13.10
2019,05,23,02,12,13.10
2019,05,23,02,13,13.10
2019,05,23,02,14,13.10
2019,05,23,02,15,13.10
2019,05,23,02,16,13.10
2019,05,23,02,17,13.10
2019,05,23,02,18,13.10
2019,05,23,02,19,13.20
2019,05,23,02,20,13.20
2019,05,23,02,21,13.30
2019,05,23,02,22,13.30
2019,05,23,02,23,13.30
2019,05,23,02,24,13.40
2019,05,23,02,25,13.50
2019,05,23,02,26,13.50
2019,05,23,02,27,13.60
2019,05,23,02,28,13.70
2019,05,23,02,29,13.70
2019,05,23,02,30,13.70
2019,05,23,02,31,13.70
2019,05,23,02,32,13.80
2019,05,23,02,33,13.80
2019,05,23,02,34,13.90
2019,05,23,02,35,13.90
2019,05,23,02,36,13.90
2019,05,23,02,37,13.90
2019,05,23,02,38,13.90
2019,05,23,02,39,13.90
2019,05,23,02,40,14.00
2019,05,23,02,41,14.00
2019,05,23,02,42,14.00
2019,05,23,02,43,14.00
2019,05,23,02,44,14.00
2019,05,23,02,45,14.00
2019,05,23,02,46,14.10
2019,05,23,02,47,14.10
2019,05,23,02,48,14.10
2019,05,23,02,49,14.10
2019,05,23,02,50,14.20
2019,05,23,02,51,14.20
2019,05,23,02,52,14.20
2019,05,23,02,53,14.20
2019,05,23,02,54,14.20
2019,05,23,02,55,14.20
2019,05,23,02,56,14.20
2019,05,23,02,57,14.20
2019,05,23,02,58,14.20
2019,05,23,02,59,14.20
2019,05,23,03,00,14.20
2019,05,23,03,01,14.20
2019,05,23,03,02,14.20
2019,05,23,03,03,14.20
2019,05,23,03,04,14.20
2019,05,23,03,05,14.20
2019,05,23,03,06,14.20
2019,05,23,03,07,14.20
2019,05,23,03,08,14.20
2019,05,23,03,09,14.20
2019,05,23,03,10,14.20
2019,05,23,03,11,14.20
2019,05,23,03,12,14.20
2019,05,23,03,13,14.20
2019,05,23,03,14,14.20
2019,05,23,03,15,14.20
2019,05,23,03,16,14.20
2019,05,23,03,17,14.20
2019,05,23,03,18,14.20
2019,05,23,03,19,14.20
2019,05,23,03,20,14.20
2019,05,23,03,21,14.20
2019,05,23,03,22,14.20
2019,05,23,03,23,14.20
2019,05,23,03,24,14.20
2019,05,23,03,25,14.20
2019,05,23,03,26,14.20
2019,05,23,03,27,14.20
2019,05,23,03,28,14.20
2019,05,23,03,29,14.20
2019,05,23,03,30,14.20
2019,05,23,03,31,14.20
2019,05,23,03,32,14.20
2019,05,23,03,33,14.20
2019,05,23,03,34,14.20
2019,05,23,03,35,14.20
2019,05,23,03,36,14.20
2019,05,23,03,37,14.20
2019,05,23,03,38,14.20
2019,05,23,03,39,14.20
2019,05,23,03,40,14.20
2019,05,23,03,41,14.10
2019,05,23,03,42,14.00
2019,05,23,03,43,13.90
2019,05,23,03,44,13.90
2019,05,23,03,45,13.80
2019,05,23,03,46,13.70
2019,05,23,03,47,13.60
2019,05,23,03,48,13.50
2019,05,23,03,49,13.40
2019,05,23,03,50,13.30
2019,05,23,03,51,13.20
2019,05,23,03,52,13.00
2019,05,23,03,53,12.90
2019,05,23,03,54,12.80
2019,05,23,03,55,12.70
2019,05,23,03,56,12.60
2019,05,23,03,57,12.60
2019,05,23,03,58,12.50
2019,05,23,03,59,12.40
2019,05,23,04,00,12.40
2019,05,23,04,01,12.30
2019,05,23,04,02,12.30
2019,05,23,04,03,12.30
2019,05,23,04,04,12.20
2019,05,23,04,05,12.20
2019,05,23,04,06,12.10
2019,05,23,04,07,12.10
2019,05,23,04,08,12.10
2019,05,23,04,09,12.00
2019,05,23,04,10,12.00
2019,05,23,04,11,12.00
2019,05,23,04,12,12.00
2019,05,23,04,13,12.00
2019,05,23,04,14,12.00
2019,05,23,04,15,12.00
2019,05,23,04,16,12.00
2019,05,23,04,17,12.00
2019,05,23,04,18,11.90
2019,05,23,04,19,11.90
2019,05,23,04,20,11.90
2019,05,23,04,21,11.90
2019,05,23,04,22,11.90
2019,05,23,04,23,11.90
2019,05,23,04,24,11.90
2019,05,23,04,25,11.90
2019,05,23,04,26,12.00
2019,05,23,04,27,12.00
2019,05,23,04,28,12.00
2019,05,23,04,29,12.10
2019,05,23,04,30,12.10
2019,05,23,04,31,12.20
2019,05,23,04,32,12.30
2019,05,23,04,33,12.40
2019,05,23,04,34,12.50
2019,05,23,04,35,12.50
2019,05,23,04,36,12.60
2019,05,23,04,37,12.70
2019,05,23,04,38,12.80
2019,05,23,04,39,12.90
2019,05,23,04,40,12.90
2019,05,23,04,41,13.00
2019,05,23,04,42,13.10
2019,05,23,04,43,13.10
2019,05,23,04,44,13.20
2019,05,23,04,45,13.20
2019,05,23,04,46,13.30
2019,05,23,04,47,13.30
2019,05,23,04,48,13.30
2019,05,23,04,49,13.30
2019,05,23,04,50,13.40
2019,05,23,04,51,13.50
2019,05,23,04,52,13.50
2019,05,23,04,53,13.60
2019,05,23,04,54,13.60
2019,05,23,04,55,13.60
2019,05,23,04,56,13.70
2019,05,23,04,57,13.70
2019,05,23,04,58,13.70
2019,05,23,04,59,13.70
2019,05,23,05,00,13.80
2019,05,23,05,01,13.80
2019,05,23,05,02,13.80
2019,05,23,05,03,13.90
2019,05,23,05,04,13.90
2019,05,23,05,05,13.90
2019,05,23,05,06,13.90
2019,05,23,05,07,13.90
2019,05,23,05,08,13.90
2019,05,23,05,09,13.90
2019,05,23,05,10,13.90
2019,05,23,05,11,13.90
2019,05,23,05,12,13.90
2019,05,23,05,13,13.90
2019,05,23,05,14,13.90
2019,05,23,05,15,13.90
2019,05,23,05,16,13.90
2019,05,23,05,17,13.90
2019,05,23,05,18,13.90
2019,05,23,05,19,13.90
2019,05,23,05,20,13.90
2019,05,23,05,21,14.00
2019,05,23,05,22,14.00
2019,05,23,05,23,14.00
2019,05,23,05,24,14.00
2019,05,23,05,25,14.00
2019,05,23,05,26,14.00
2019,05,23,05,27,14.00
2019,05,23,05,28,13.90
2019,05,23,05,29,13.90
2019,05,23,05,30,13.90
2019,05,23,05,31,13.90
2019,05,23,05,32,13.90
2019,05,23,05,33,13.90
2019,05,23,05,34,13.80
2019,05,23,05,35,13.80
2019,05,23,05,36,13.80
2019,05,23,05,37,13.70
2019,05,23,05,38,13.70
2019,05,23,05,39,13.70
2019,05,23,05,40,13.70
2019,05,23,05,41,13.70
2019,05,23,05,42,13.70
2019,05,23,05,43,13.70
2019,05,23,05,44,13.70
2019,05,23,05,45,13.70
2019,05,23,05,46,13.60
2019,05,23,05,47,13.60
2019,05,23,05,48,13.60
2019,05,23,05,49,13.60
2019,05,23,05,50,13.60
2019,05,23,05,51,13.60
2019,05,23,05,52,13.50
2019,05,23,05,53,13.50
2019,05,23,05,54,13.40
2019,05,23,05,55,13.30
2019,05,23,05,56,13.20
2019,05,23,05,57,13.10
2019,05,23,05,58,13.00
2019,05,23,05,59,12.90
2019,05,23,06,00,12.80
2019,05,23,06,01,12.70
2019,05,23,06,02,12.60
2019,05,23,06,03,12.50
2019,05,23,06,04,12.40
2019,05,23,06,05,12.30
2019,05,23,06,06,12.30
2019,05,23,06,07,12.20
2019,05,23,06,08,12.20
2019,05,23,06,09,12.10
2019,05,23,06,10,12.00
2019,05,23,06,11,11.90
2019,05,23,06,12,11.90
2019,05,23,06,13,11.80
2019,05,23,06,14,11.80
2019,05,23,06,15,11.80
2019,05,23,06,16,11.80
2019,05,23,06,17,11.70
2019,05,23,06,18,11.70
2019,05,23,06,19,11.70
2019,05,23,06,20,11.60
2019,05,23,06,21,11.60
2019,05,23,06,22,11.60
2019,05,23,06,23,11.60
2019,05,23,06,24,11.60
2019,05,23,06,25,11.60
2019,05,23,06,26,11.60
2019,05,23,06,27,11.50
2019,05,23,06,28,11.40
2019,05,23,06,29,11.40
2019,05,23,06,30,11.40
2019,05,23,06,31,11.40
2019,05,23,06,32,11.40
2019,05,23,06,33,11.40
2019,05,23,06,34,11.40
2019,05,23,06,35,11.40
2019,05,23,06,36,11.30
2019,05,23,06,37,11.30
2019,05,23,06,38,11.30
2019,05,23,06,39,11.30
2019,05,23,06,40,11.20
2019,05,23,06,41,11.20
2019,05,23,06,42,11.20
2019,05,23,06,43,11.20
2019,05,23,06,44,11.20
2019,05,23,06,45,11.20
2019,05,23,06,46,11.20
2019,05,23,06,47,11.20
2019,05,23,06,48,11.20
2019,05,23,06,49,11.20
2019,05,23,06,50,11.20
2019,05,23,06,51,11.20
2019,05,23,06,52,11.20
2019,05,23,06,53,11.20
2019,05,23,06,54,11.20
2019,05,23,06,55,11.30
2019,05,23,06,56,11.30
2019,05,23,06,57,11.30
2019,05,23,06,58,11.30
2019,05,23,06,59,11.30
2019,05,23,07,00,11.30
2019,05,23,07,01,11.30
2019,05,23,07,02,11.40
2019,05,23,07,03,11.40
2019,05,23,07,04,11.40
2019,05,23,07,05,11.40
2019,05,23,07,06,11.40
2019,05,23,07,07,11.40
2019,05,23,07,08,11.40
2019,05,23,07,09,11.50
2019,05,23,07,10,11.60
2019,05,23,07,11,11.60
2019,05,23,07,12,11.60
2019,05,23,07,13,11.60
2019,05,23,07,14,11.60
2019,05,23,07,15,11.70
2019,05,23,07,16,11.70
2019,05,23,07,17,11.70
2019,05,23,07,18,11.80
2019,05,23,07,19,11.80
2019,05,23,07,20,11.80
2019,05,23,07,21,11.80
2019,05,23,07,22,11.90
2019,05,23,07,23,11.90
2019,05,23,07,24,12.00
2019,05,23,07,25,12.10
2019,05,23,07,26,12.10
2019,05,23,07,27,12.20
2019,05,23,07,28,12.30
2019,05,23,07,29,12.40
2019,05,23,07,30,12.50
2019,05,23,07,31,12.50
2019,05,23,07,32,12.70
2019,05,23,07,33,12.80
2019,05,23,07,34,12.90
2019,05,23,07,35,13.00
2019,05,23,07,36,13.10
2019,05,23,07,37,13.20
2019,05,23,07,38,13.30
2019,05,23,07,39,13.50
2019,05,23,07,40,13.60
2019,05,23,07,41,13.70
2019,05,23,07,42,13.70
2019,05,23,07,43,13.80
2019,05,23,07,44,13.90
2019,05,23,07,45,14.00
2019,05,23,07,46,14.00
2019,05,23,07,47,14.10
2019,05,23,07,48,14.20
2019,05,23,07,49,14.30
2019,05,23,07,50,14.40
2019,05,23,07,51,14.40
2019,05,23,07,52,14.50
2019,05,23,07,53,14.50
2019,05,23,07,54,14.50
2019,05,23,07,55,14.60
2019,05,23,07,56,14.60
2019,05,23,07,57,14.60
2019,05,23,07,58,14.70
2019,05,23,07,59,14.70
2019,05,23,08,00,14.70
2019,05,23,08,01,14.70
2019,05,23,08,02,14.80
2019,05,23,08,03,14.80
2019,05,23,08,04,14.80
2019,05,23,08,05,14.80
2019,05,23,08,06,14.80
2019,05,23,08,07,14.80
2019,05,23,08,08,14.90
2019,05,23,08,09,14.90
2019,05,23,08,10,15.00
2019,05,23,08,11,15.00
2019,05,23,08,12,15.00
2019,05,23,08,13,15.10
2019,05,23,08,14,15.10
2019,05,23,08,15,15.10
2019,05,23,08,16,15.10
2019,05,23,08,17,15.20
2019,05,23,08,18,15.20
2019,05,23,08,19,15.30
2019,05,23,08,20,15.30
2019,05,23,08,21,15.40
2019,05,23,08,22,15.50
2019,05,23,08,23,15.60
2019,05,23,08,24,15.70
2019,05,23,08,25,15.80
2019,05,23,08,26,15.90
2019,05,23,08,27,16.00
2019,05,23,08,28,16.10
2019,05,23,08,29,16.20
2019,05,23,08,30,16.30
2019,05,23,08,31,16.40
2019,05,23,08,32,16.50
2019,05,23,08,33,16.60
2019,05,23,08,34,16.70
2019,05,23,08,35,16.80
2019,05,23,08,36,16.90
2019,05,23,08,37,17.00
2019,05,23,08,38,17.00
2019,05,23,08,39,17.10
2019,05,23,08,40,17.30
2019,05,23,08,41,17.30
2019,05,23,08,42,17.30
2019,05,23,08,43,17.40
2019,05,23,08,44,17.50
2019,05,23,08,45,17.60
2019,05,23,08,46,17.60
2019,05,23,08,47,17.70
2019,05,23,08,48,17.70
2019,05,23,08,49,17.80
2019,05,23,08,50,17.80
2019,05,23,08,51,17.90
2019,05,23,08,52,17.90
2019,05,23,08,53,17.90
2019,05,23,08,54,17.90
2019,05,23,08,55,18.00
2019,05,23,08,56,18.10
2019,05,23,08,57,18.20
2019,05,23,08,58,18.20
2019,05,23,08,59,18.20
2019,05,23,09,00,18.30
2019,05,23,09,01,18.30
2019,05,23,09,02,18.30
2019,05,23,09,03,18.40
2019,05,23,09,04,18.40
2019,05,23,09,05,18.40
2019,05,23,09,06,18.40
2019,05,23,09,07,18.40
2019,05,23,09,08,18.40
2019,05,23,09,09,18.40
2019,05,23,09,10,18.40
2019,05,23,09,11,18.50
2019,05,23,09,12,18.50
2019,05,23,09,13,18.60
2019,05,23,09,14,18.70
2019,05,23,09,15,18.70
2019,05,23,09,16,18.80
2019,05,23,09,17,18.80
2019,05,23,09,18,18.80
2019,05,23,09,19,18.90
2019,05,23,09,20,18.90
2019,05,23,09,21,18.90
2019,05,23,09,22,19.00
2019,05,23,09,23,19.10
2019,05,23,09,24,19.10
2019,05,23,09,25,19.20
2019,05,23,09,26,19.30
2019,05,23,09,27,19.30
2019,05,23,09,28,19.40
2019,05,23,09,29,19.40
2019,05,23,09,30,19.50
2019,05,23,09,31,19.50
2019,05,23,09,32,19.60
2019,05,23,09,33,19.60
2019,05,23,09,34,19.70
2019,05,23,09,35,19.70
2019,05,23,09,36,19.80
2019,05,23,09,37,19.80
2019,05,23,09,38,19.90
2019,05,23,09,39,19.90
2019,05,23,09,40,19.90
2019,05,23,09,41,19.90
2019,05,23,09,42,19.90
2019,05,23,09,43,19.80
2019,05,23,09,44,19.80
2019,05,23,09,45,19.80
2019,05,23,09,46,19.80
2019,05,23,09,47,19.80
2019,05,23,09,48,19.80
2019,05,23,09,49,19.80
2019,05,23,09,50,19.80
2019,05,23,09,51,19.80
2019,05,23,09,52,19.80
2019,05,23,09,53,19.80
2019,05,23,09,54,19.80
2019,05,23,09,55,19.80
2019,05,23,09,56,19.80
2019,05,23,09,57,19.80
2019,05,23,09,58,19.90
2019,05,23,09,59,19.90
2019,05,23,10,00,19.90
2019,05,23,10,01,19.90
2019,05,23,10,02,20.00
2019,05,23,10,03,20.10
2019,05,23,10,04,20.10
2019,05,23,10,05,20.00
2019,05,23,10,06,19.90
2019,05,23,10,07,19.90
2019,05,23,10,08,19.90
2019,05,23,10,09,19.90
2019,05,23,10,10,20.00
2019,05,23,10,11,20.10
2019,05,23,10,12,20.20
2019,05,23,10,13,20.20
2019,05,23,10,14,20.20
2019,05,23,10,15,20.20
2019,05,23,10,16,20.20
2019,05,23,10,17,20.20
2019,05,23,10,18,20.30
2019,05,23,10,19,20.30
2019,05,23,10,20,20.20
2019,05,23,10,21,20.20
2019,05,23,10,22,20.20
2019,05,23,10,23,20.20
2019,05,23,10,24,20.20
2019,05,23,10,25,20.10
2019,05,23,10,26,20.00
2019,05,23,10,27,19.90
2019,05,23,10,28,19.90
2019,05,23,10,29,19.90
2019,05,23,10,30,20.00
2019,05,23,10,31,20.10
2019,05,23,10,32,20.20
2019,05,23,10,33,20.20
2019,05,23,10,34,20.30
2019,05,23,10,35,20.40
2019,05,23,10,36,20.40
2019,05,23,10,37,20.50
2019,05,23,10,38,20.60
2019,05,23,10,39,20.60
2019,05,23,10,40,20.50
2019,05,23,10,41,20.40
2019,05,23,10,42,20.40
2019,05,23,10,43,20.30
2019,05,23,10,44,20.40
2019,05,23,10,45,20.40
2019,05,23,10,46,20.50
2019,05,23,10,47,20.50
2019,05,23,10,48,20.60
2019,05,23,10,49,20.60
2019,05,23,10,50,20.60
2019,05,23,10,51,20.70
2019,05,23,10,52,20.70
2019,05,23,10,53,20.80
2019,05,23,10,54,20.70
2019,05,23,10,55,20.70
2019,05,23,10,56,20.70
2019,05,23,10,57,20.70
2019,05,23,10,58,20.70
2019,05,23,10,59,20.80
2019,05,23,11,00,20.80
2019,05,23,11,01,20.70
2019,05,23,11,02,20.70
2019,05,23,11,03,20.80
2019,05,23,11,04,20.80
2019,05,23,11,05,20.90
2019,05,23,11,06,21.00
2019,05,23,11,07,21.00
2019,05,23,11,08,21.10
2019,05,23,11,09,21.20
2019,05,23,11,10,21.30
2019,05,23,11,11,21.30
2019,05,23,11,12,21.40
2019,05,23,11,13,21.50
2019,05,23,11,14,21.60
2019,05,23,11,15,21.60
2019,05,23,11,16,21.60
2019,05,23,11,17,21.60
2019,05,23,11,18,21.50
2019,05,23,11,19,21.50
2019,05,23,11,20,21.40
2019,05,23,11,21,21.40
2019,05,23,11,22,21.30
2019,05,23,11,23,21.30
2019,05,23,11,24,21.30
2019,05,23,11,25,21.30
2019,05,23,11,26,21.30
2019,05,23,11,27,21.30
2019,05,23,11,28,21.30
2019,05,23,11,29,21.40
2019,05,23,11,30,21.40
2019,05,23,11,31,21.30
2019,05,23,11,32,21.30
2019,05,23,11,33,21.40
2019,05,23,11,34,21.40
2019,05,23,11,35,21.40
2019,05,23,11,36,21.40
2019,05,23,11,37,21.50
2019,05,23,11,38,21.60
2019,05,23,11,39,21.70
2019,05,23,11,40,21.70
2019,05,23,11,41,21.70
2019,05,23,11,42,21.70
2019,05,23,11,43,21.80
2019,05,23,11,44,21.80
2019,05,23,11,45,21.90
2019,05,23,11,46,22.00
2019,05,23,11,47,22.00
2019,05,23,11,48,22.00
2019,05,23,11,49,22.10
2019,05,23,11,50,22.10
2019,05,23,11,51,22.10
2019,05,23,11,52,22.10
2019,05,23,11,53,22.00
2019,05,23,11,54,21.90
2019,05,23,11,55,21.90
2019,05,23,11,56,21.90
2019,05,23,11,57,21.90
2019,05,23,11,58,21.80
2019,05,23,11,59,21.90
2019,05,23,12,00,21.80
2019,05,23,12,01,21.90
2019,05,23,12,02,21.90
2019,05,23,12,03,21.90
2019,05,23,12,04,21.90
2019,05,23,12,05,21.90
2019,05,23,12,06,21.90
2019,05,23,12,07,21.90
2019,05,23,12,08,21.90
2019,05,23,12,09,21.90
2019,05,23,12,10,21.90
2019,05,23,12,11,21.80
2019,05,23,12,12,21.80
2019,05,23,12,13,21.80
2019,05,23,12,14,21.90
2019,05,23,12,15,21.90
2019,05,23,12,16,21.90
2019,05,23,12,17,21.90
2019,05,23,12,18,21.90
2019,05,23,12,19,22.00
2019,05,23,12,20,22.10
2019,05,23,12,21,22.10
2019,05,23,12,22,22.10
2019,05,23,12,23,22.10
2019,05,23,12,24,22.20
2019,05,23,12,25,22.20
2019,05,23,12,26,22.30
2019,05,23,12,27,22.30
2019,05,23,12,28,22.40
2019,05,23,12,29,22.50
2019,05,23,12,30,22.40
2019,05,23,12,31,22.40
2019,05,23,12,32,22.40
2019,05,23,12,33,22.50
2019,05,23,12,34,22.60
2019,05,23,12,35,22.70
2019,05,23,12,36,22.70
2019,05,23,12,37,22.80
2019,05,23,12,38,22.80
2019,05,23,12,39,22.90
2019,05,23,12,40,22.90
2019,05,23,12,41,22.90
2019,05,23,12,42,23.00
2019,05,23,12,43,23.10
2019,05,23,12,44,23.10
2019,05,23,12,45,23.20
2019,05,23,12,46,23.30
2019,05,23,12,47,23.30
2019,05,23,12,48,23.30
2019,05,23,12,49,23.50
2019,05,23,12,50,23.60
2019,05,23,12,51,23.70
2019,05,23,12,52,23.70
2019,05,23,12,53,23.70
2019,05,23,12,54,23.80
2019,05,23,12,55,23.90
2019,05,23,12,56,23.90
2019,05,23,12,57,23.90
2019,05,23,12,58,23.90
2019,05,23,12,59,23.90
2019,05,23,13,00,24.00
2019,05,23,13,01,24.10
2019,05,23,13,02,24.10
2019,05,23,13,03,24.00
2019,05,23,13,04,23.90
2019,05,23,13,05,23.80
2019,05,23,13,06,23.80
2019,05,23,13,07,23.80
2019,05,23,13,08,23.80
2019,05,23,13,09,23.80
2019,05,23,13,10,23.70
2019,05,23,13,11,23.70
2019,05,23,13,12,23.70
2019,05,23,13,13,23.70
2019,05,23,13,14,23.70
2019,05,23,13,15,23.70
2019,05,23,13,16,23.60
2019,05,23,13,17,23.50
2019,05,23,13,18,23.40
2019,05,23,13,19,23.40
2019,05,23,13,20,23.40
2019,05,23,13,21,23.40
2019,05,23,13,22,23.40
2019,05,23,13,23,23.40
2019,05,23,13,24,23.50
2019,05,23,13,25,23.60
2019,05,23,13,26,23.70
2019,05,23,13,27,23.80
2019,05,23,13,28,23.90
2019,05,23,13,29,24.00
2019,05,23,13,30,24.10
2019,05,23,13,31,24.10
2019,05,23,13,32,24.20
2019,05,23,13,33,24.20
2019,05,23,13,34,24.20
2019,05,23,13,35,24.20
2019,05,23,13,36,24.20
2019,05,23,13,37,24.10
2019,05,23,13,38,24.10
2019,05,23,13,39,24.10
2019,05,23,13,40,24.20
2019,05,23,13,41,24.20
2019,05,23,13,42,24.20
2019,05,23,13,43,24.20
2019,05,23,13,44,24.30
2019,05,23,13,45,24.30
2019,05,23,13,46,24.30
2019,05,23,13,47,24.30
2019,05,23,13,48,24.40
2019,05,23,13,49,24.40
2019,05,23,13,50,24.40
2019,05,23,13,51,24.30
2019,05,23,13,52,24.10
2019,05,23,13,53,24.10
2019,05,23,13,54,24.10
2019,05,23,13,55,24.10
2019,05,23,13,56,24.10
2019,05,23,13,57,24.10
2019,05,23,13,58,24.10
2019,05,23,13,59,24.10
2019,05,23,14,00,24.20
2019,05,23,14,01,24.20
2019,05,23,14,02,24.20
2019,05,23,14,03,24.10
2019,05,23,14,04,24.10
2019,05,23,14,05,24.10
2019,05,23,14,06,24.10
2019,05,23,14,07,24.10
2019,05,23,14,08,24.10
2019,05,23,14,09,24.10
2019,05,23,14,10,24.10
2019,05,23,14,11,24.20
2019,05,23,14,12,24.30
2019,05,23,14,13,24.30
2019,05,23,14,14,24.30
2019,05,23,14,15,24.40
2019,05,23,14,16,24.40
2019,05,23,14,17,24.40
2019,05,23,14,18,24.40
2019,05,23,14,19,24.40
2019,05,23,14,20,24.40
2019,05,23,14,21,24.40
2019,05,23,14,22,24.40
2019,05,23,14,23,24.40
2019,05,23,14,24,24.30
2019,05,23,14,25,24.20
2019,05,23,14,26,24.10
2019,05,23,14,27,24.10
2019,05,23,14,28,24.10
2019,05,23,14,29,24.10
2019,05,23,14,30,24.20
2019,05,23,14,31,24.30
2019,05,23,14,32,24.30
2019,05,23,14,33,24.40
2019,05,23,14,34,24.40
2019,05,23,14,35,24.50
2019,05,23,14,36,24.50
2019,05,23,14,37,24.50
2019,05,23,14,38,24.50
2019,05,23,14,39,24.40
2019,05,23,14,40,24.40
2019,05,23,14,41,24.30
2019,05,23,14,42,24.30
2019,05,23,14,43,24.30
2019,05,23,14,44,24.40
2019,05,23,14,45,24.40
2019,05,23,14,46,24.30
2019,05,23,14,47,24.30
2019,05,23,14,48,24.30
2019,05,23,14,49,24.30
2019,05,23,14,50,24.30
2019,05,23,14,51,24.40
2019,05,23,14,52,24.40
2019,05,23,14,53,24.50
2019,05,23,14,54,24.60
2019,05,23,14,55,24.60
2019,05,23,14,56,24.70
2019,05,23,14,57,24.80
2019,05,23,14,58,24.80
2019,05,23,14,59,24.90
2019,05,23,15,00,24.90
2019,05,23,15,01,25.00
2019,05,23,15,02,25.00
2019,05,23,15,03,24.90
2019,05,23,15,04,24.90
2019,05,23,15,05,24.80
2019,05,23,15,06,24.70
2019,05,23,15,07,24.60
2019,05,23,15,08,24.60
2019,05,23,15,09,24.60
2019,05,23,15,10,24.70
2019,05,23,15,11,24.70
2019,05,23,15,12,24.70
2019,05,23,15,13,24.70
2019,05,23,15,14,24.70
2019,05,23,15,15,24.70
2019,05,23,15,16,24.70
2019,05,23,15,17,24.70
2019,05,23,15,18,24.70
2019,05,23,15,19,24.70
2019,05,23,15,20,24.70
2019,05,23,15,21,24.80
2019,05,23,15,22,24.80
2019,05,23,15,23,24.80
2019,05,23,15,24,24.80
2019,05,23,15,25,24.90
2019,05,23,15,26,24.90
2019,05,23,15,27,25.00
2019,05,23,15,28,24.90
2019,05,23,15,29,24.80
2019,05,23,15,30,24.60
2019,05,23,15,31,24.60
2019,05,23,15,32,24.50
2019,05,23,15,33,24.40
2019,05,23,15,34,24.30
2019,05,23,15,35,24.20
2019,05,23,15,36,24.20
2019,05,23,15,37,24.20
2019,05,23,15,38,24.10
2019,05,23,15,39,24.10
2019,05,23,15,40,24.10
2019,05,23,15,41,24.10
2019,05,23,15,42,24.10
2019,05,23,15,43,24.10
2019,05,23,15,44,24.00
2019,05,23,15,45,23.90
2019,05,23,15,46,23.90
2019,05,23,15,47,23.80
2019,05,23,15,48,23.80
2019,05,23,15,49,23.70
2019,05,23,15,50,23.70
2019,05,23,15,51,23.70
2019,05,23,15,52,23.70
2019,05,23,15,53,23.70
2019,05,23,15,54,23.60
2019,05,23,15,55,23.50
2019,05,23,15,56,23.40
2019,05,23,15,57,23.30
2019,05,23,15,58,23.30
2019,05,23,15,59,23.30
2019,05,23,16,00,23.20
2019,05,23,16,01,23.20
2019,05,23,16,02,23.10
2019,05,23,16,03,23.10
2019,05,23,16,04,23.00
2019,05,23,16,05,22.90
2019,05,23,16,06,22.90
2019,05,23,16,07,22.90
2019,05,23,16,08,22.80
2019,05,23,16,09,22.80
2019,05,23,16,10,22.70
2019,05,23,16,11,22.70
2019,05,23,16,12,22.70
2019,05,23,16,13,22.70
2019,05,23,16,14,22.70
2019,05,23,16,15,22.60
2019,05,23,16,16,22.60
2019,05,23,16,17,22.60
2019,05,23,16,18,22.60
2019,05,23,16,19,22.60
2019,05,23,16,20,22.50
2019,05,23,16,21,22.50
2019,05,23,16,22,22.40
2019,05,23,16,23,22.40
2019,05,23,16,24,22.40
2019,05,23,16,25,22.40
2019,05,23,16,26,22.40
2019,05,23,16,27,22.30
2019,05,23,16,28,22.30
2019,05,23,16,29,22.30
2019,05,23,16,30,22.20
2019,05,23,16,31,22.20
2019,05,23,16,32,22.20
2019,05,23,16,33,22.20
2019,05,23,16,34,22.10
2019,05,23,16,35,22.10
2019,05,23,16,36,22.10
2019,05,23,16,37,22.10
2019,05,23,16,38,22.00
2019,05,23,16,39,22.00
2019,05,23,16,40,22.00
2019,05,23,16,41,21.90
2019,05,23,16,42,21.80
2019,05,23,16,43,21.80
2019,05,23,16,44,21.80
2019,05,23,16,45,21.70
2019,05,23,16,46,21.70
2019,05,23,16,47,21.70
2019,05,23,16,48,21.70
2019,05,23,16,49,21.70
2019,05,23,16,50,21.70
2019,05,23,16,51,21.70
2019,05,23,16,52,21.70
2019,05,23,16,53,21.70
2019,05,23,16,54,21.70
2019,05,23,16,55,21.70
2019,05,23,16,56,21.60
2019,05,23,16,57,21.60
2019,05,23,16,58,21.60
2019,05,23,16,59,21.60
2019,05,23,17,00,21.60
2019,05,23,17,01,21.60
2019,05,23,17,02,21.60
2019,05,23,17,03,21.60
2019,05,23,17,04,21.60
2019,05,23,17,05,21.60
2019,05,23,17,06,21.60
2019,05,23,17,07,21.60
2019,05,23,17,08,21.60
2019,05,23,17,09,21.60
2019,05,23,17,10,21.60
2019,05,23,17,11,21.60
2019,05,23,17,12,21.60
2019,05,23,17,13,21.60
2019,05,23,17,14,21.60
2019,05,23,17,15,21.60
2019,05,23,17,16,21.60
2019,05,23,17,17,21.60
2019,05,23,17,18,21.60
2019,05,23,17,19,21.60